Time,TemperatureF,DewpointF,PressureIn,WindDirection,WindDirectionDegrees,WindSpeedMPH,WindSpeedGustMPH,Humidity,HourlyPrecipIn,Conditions,Clouds,dailyrainin,SoftwareType,DateUTC
2013-04-23 00:02:00,25.0,24.0,-100.00,WNW,285,3.0,4.0,95,-99.99,,,-99.99,,2013-04-23 05:02:00,
2013-04-23 00:10:00,24.0,23.0,-100.00,WNW,295,6.0,6.0,95,-99.99,,,-99.99,,2013-04-23 05:10:00,
2013-04-23 00:32:00,24.0,23.0,-100.00,WNW,295,6.0,6.0,95,-99.99,,,-99.99,,2013-04-23 05:32:00,
2013-04-23 00:42:00,24.0,23.0,-100.00,WNW,295,6.0,6.0,95,-99.99,,,-99.99,,2013-04-23 05:42:00,
2013-04-23 00:52:00,24.0,23.0,-100.00,WNW,295,6.0,6.0,95,-99.99,,,-99.99,,2013-04-23 05:52:00,
2013-04-23 01:01:00,24.0,23.0,-100.00,WNW,295,6.0,6.0,95,-99.99,,,-99.99,,2013-04-23 06:01:00,
2013-04-23 01:33:00,24.0,23.0,-100.00,WNW,295,9.0,9.0,95,-99.99,,,-99.99,,2013-04-23 06:33:00,
2013-04-23 01:42:00,24.0,23.0,-100.00,WNW,295,9.0,9.0,95,-99.99,,,-99.99,,2013-04-23 06:42:00,
2013-04-23 01:52:00,24.0,23.0,-100.00,WNW,295,9.0,9.0,95,-99.99,,,-99.99,,2013-04-23 06:52:00,
2013-04-23 02:02:00,24.0,23.0,-100.00,WNW,295,9.0,9.0,95,-99.99,,,-99.99,,2013-04-23 07:02:00,
2013-04-23 02:32:00,23.0,22.0,-100.00,West,280,9.0,10.0,94,-99.99,,,-99.99,,2013-04-23 07:32:00,
2013-04-23 02:42:00,23.0,22.0,-100.00,West,280,9.0,10.0,94,-99.99,,,-99.99,,2013-04-23 07:42:00,
2013-04-23 02:52:00,23.0,22.0,-100.00,West,280,9.0,10.0,94,-99.99,,,-99.99,,2013-04-23 07:52:00,
2013-04-23 03:02:00,23.0,22.0,-100.00,West,280,9.0,10.0,94,-99.99,,,-99.99,,2013-04-23 08:02:00,
2013-04-23 03:10:00,23.0,22.0,-100.00,West,280,10.0,11.0,95,-99.99,,,-99.99,,2013-04-23 08:10:00,
2013-04-23 03:32:00,23.0,22.0,-100.00,West,280,10.0,11.0,95,-99.99,,,-99.99,,2013-04-23 08:32:00,
2013-04-23 03:42:00,23.0,22.0,-100.00,West,280,10.0,11.0,95,-99.99,,,-99.99,,2013-04-23 08:42:00,
2013-04-23 03:52:00,23.0,22.0,-100.00,West,280,10.0,11.0,95,-99.99,,,-99.99,,2013-04-23 08:52:00,
2013-04-23 04:01:00,23.0,22.0,-100.00,West,280,10.0,11.0,95,-99.99,,,-99.99,,2013-04-23 09:01:00,
2013-04-23 05:33:00,22.0,22.0,-100.00,West,275,8.0,9.0,98,-99.99,,,-99.99,,2013-04-23 10:33:00,
2013-04-23 05:43:00,22.0,22.0,-100.00,West,275,8.0,9.0,98,-99.99,,,-99.99,,2013-04-23 10:43:00,
2013-04-23 05:52:00,22.0,22.0,-100.00,West,275,8.0,9.0,98,-99.99,,,-99.99,,2013-04-23 10:52:00,
2013-04-23 06:03:00,22.0,22.0,-100.00,West,275,8.0,9.0,98,-99.99,,,-99.99,,2013-04-23 11:03:00,
2013-04-23 06:10:00,21.0,21.0,-100.00,West,280,8.0,9.0,99,-99.99,,,-99.99,,2013-04-23 11:10:00,
2013-04-23 06:32:00,21.0,21.0,-100.00,West,280,8.0,9.0,99,-99.99,,,-99.99,,2013-04-23 11:32:00,
2013-04-23 06:43:00,21.0,21.0,-100.00,West,280,8.0,9.0,99,-99.99,,,-99.99,,2013-04-23 11:43:00,
2013-04-23 06:53:00,21.0,21.0,-100.00,West,280,8.0,9.0,99,-99.99,,,-99.99,,2013-04-23 11:53:00,
2013-04-23 07:02:00,21.0,21.0,-100.00,West,280,8.0,9.0,99,-99.99,,,-99.99,,2013-04-23 12:02:00,
2013-04-23 07:32:00,22.0,22.0,-100.00,West,270,11.0,12.0,98,-99.99,,,-99.99,,2013-04-23 12:32:00,
2013-04-23 07:42:00,22.0,22.0,-100.00,West,270,11.0,12.0,98,-99.99,,,-99.99,,2013-04-23 12:42:00,
2013-04-23 07:52:00,22.0,22.0,-100.00,West,270,11.0,12.0,98,-99.99,,,-99.99,,2013-04-23 12:52:00,
2013-04-23 08:01:00,22.0,22.0,-100.00,West,270,11.0,12.0,98,-99.99,,,-99.99,,2013-04-23 13:01:00,
2013-04-23 08:10:00,25.0,23.0,-100.00,West,280,9.0,10.0,91,-99.99,,,-99.99,,2013-04-23 13:10:00,
2013-04-23 08:32:00,25.0,23.0,-100.00,West,280,9.0,10.0,91,-99.99,,,-99.99,,2013-04-23 13:32:00,
2013-04-23 08:42:00,25.0,23.0,-100.00,West,280,9.0,10.0,91,-99.99,,,-99.99,,2013-04-23 13:42:00,
2013-04-23 08:52:00,25.0,23.0,-100.00,West,280,9.0,10.0,91,-99.99,,,-99.99,,2013-04-23 13:52:00,
2013-04-23 09:02:00,25.0,23.0,-100.00,West,280,9.0,10.0,91,-99.99,,,-99.99,,2013-04-23 14:02:00,
2013-04-23 09:12:00,28.0,25.0,-100.00,WNW,285,7.0,8.0,86,-99.99,,,-99.99,,2013-04-23 14:12:00,
2013-04-23 09:32:00,28.0,25.0,-100.00,WNW,285,7.0,8.0,86,-99.99,,,-99.99,,2013-04-23 14:32:00,
2013-04-23 09:42:00,28.0,25.0,-100.00,WNW,285,7.0,8.0,86,-99.99,,,-99.99,,2013-04-23 14:42:00,
2013-04-23 09:52:00,28.0,25.0,-100.00,WNW,285,7.0,8.0,86,-99.99,,,-99.99,,2013-04-23 14:52:00,
2013-04-23 10:01:00,28.0,25.0,-100.00,WNW,285,7.0,8.0,86,-99.99,,,-99.99,,2013-04-23 15:01:00,
2013-04-23 10:11:00,31.0,25.0,-100.00,West,280,10.0,11.0,80,-99.99,,,-99.99,,2013-04-23 15:11:00,
2013-04-23 10:32:00,31.0,25.0,-100.00,West,280,10.0,11.0,80,-99.99,,,-99.99,,2013-04-23 15:32:00,
2013-04-23 10:43:00,31.0,25.0,-100.00,West,280,10.0,11.0,80,-99.99,,,-99.99,,2013-04-23 15:43:00,
2013-04-23 10:53:00,31.0,25.0,-100.00,West,280,10.0,11.0,80,-99.99,,,-99.99,,2013-04-23 15:53:00,
2013-04-23 11:03:00,31.0,25.0,-100.00,West,280,10.0,11.0,80,-99.99,,,-99.99,,2013-04-23 16:03:00,
2013-04-23 11:11:00,33.0,26.0,-100.00,WNW,285,8.0,9.0,77,-99.99,,,-99.99,,2013-04-23 16:11:00,
2013-04-23 11:34:00,33.0,26.0,-100.00,WNW,285,8.0,9.0,77,-99.99,,,-99.99,,2013-04-23 16:34:00,
2013-04-23 11:43:00,33.0,26.0,-100.00,WNW,285,8.0,9.0,77,-99.99,,,-99.99,,2013-04-23 16:43:00,
2013-04-23 11:53:00,33.0,26.0,-100.00,WNW,285,8.0,9.0,77,-99.99,,,-99.99,,2013-04-23 16:53:00,
2013-04-23 12:02:00,33.0,26.0,-100.00,WNW,285,8.0,9.0,77,-99.99,,,-99.99,,2013-04-23 17:02:00,
2013-04-23 12:10:00,35.0,26.0,-100.00,WNW,290,8.0,9.0,70,-99.99,,,-99.99,,2013-04-23 17:10:00,
2013-04-23 12:33:00,35.0,26.0,-100.00,WNW,290,8.0,9.0,70,-99.99,,,-99.99,,2013-04-23 17:33:00,
2013-04-23 12:43:00,35.0,26.0,-100.00,WNW,290,8.0,9.0,70,-99.99,,,-99.99,,2013-04-23 17:43:00,
2013-04-23 12:53:00,35.0,26.0,-100.00,WNW,290,8.0,9.0,70,-99.99,,,-99.99,,2013-04-23 17:53:00,
2013-04-23 13:02:00,35.0,26.0,-100.00,WNW,290,8.0,9.0,70,-99.99,,,-99.99,,2013-04-23 18:02:00,
2013-04-23 13:10:00,36.0,24.0,-100.00,WNW,290,7.0,9.0,62,-99.99,,,-99.99,,2013-04-23 18:10:00,
2013-04-23 13:32:00,36.0,24.0,-100.00,WNW,290,7.0,9.0,62,-99.99,,,-99.99,,2013-04-23 18:32:00,
2013-04-23 13:42:00,36.0,24.0,-100.00,WNW,290,7.0,9.0,62,-99.99,,,-99.99,,2013-04-23 18:42:00,
2013-04-23 13:52:00,36.0,24.0,-100.00,WNW,290,7.0,9.0,62,-99.99,,,-99.99,,2013-04-23 18:52:00,
2013-04-23 14:02:00,36.0,24.0,-100.00,WNW,290,7.0,9.0,62,-99.99,,,-99.99,,2013-04-23 19:02:00,
2013-04-23 14:11:00,37.0,29.0,-100.00,WSW,240,10.0,12.0,74,-99.99,,,-99.99,,2013-04-23 19:11:00,
2013-04-23 14:32:00,37.0,29.0,-100.00,WSW,240,10.0,12.0,74,-99.99,,,-99.99,,2013-04-23 19:32:00,
2013-04-23 14:42:00,37.0,29.0,-100.00,WSW,240,10.0,12.0,74,-99.99,,,-99.99,,2013-04-23 19:42:00,
2013-04-23 14:52:00,37.0,29.0,-100.00,WSW,240,10.0,12.0,74,-99.99,,,-99.99,,2013-04-23 19:52:00,
2013-04-23 15:02:00,37.0,29.0,-100.00,WSW,240,10.0,12.0,74,-99.99,,,-99.99,,2013-04-23 20:02:00,
2013-04-23 15:11:00,38.0,29.0,-100.00,WSW,245,8.0,9.0,70,-99.99,,,-99.99,,2013-04-23 20:11:00,
2013-04-23 15:32:00,38.0,29.0,-100.00,WSW,245,8.0,9.0,70,-99.99,,,-99.99,,2013-04-23 20:32:00,
2013-04-23 15:42:00,38.0,29.0,-100.00,WSW,245,8.0,9.0,70,-99.99,,,-99.99,,2013-04-23 20:42:00,
2013-04-23 15:52:00,38.0,29.0,-100.00,WSW,245,8.0,9.0,70,-99.99,,,-99.99,,2013-04-23 20:52:00,
2013-04-23 16:02:00,38.0,29.0,-100.00,WSW,245,8.0,9.0,70,-99.99,,,-99.99,,2013-04-23 21:02:00,
2013-04-23 17:33:00,39.0,29.0,-100.00,WSW,240,9.0,12.0,69,-99.99,,,-99.99,,2013-04-23 22:33:00,
2013-04-23 17:42:00,39.0,29.0,-100.00,WSW,240,9.0,12.0,69,-99.99,,,-99.99,,2013-04-23 22:42:00,
2013-04-23 17:52:00,39.0,29.0,-100.00,WSW,240,9.0,12.0,69,-99.99,,,-99.99,,2013-04-23 22:52:00,
2013-04-23 18:03:00,39.0,29.0,-100.00,WSW,240,9.0,12.0,69,-99.99,,,-99.99,,2013-04-23 23:03:00,
2013-04-23 18:11:00,39.0,29.0,-100.00,SW,230,9.0,11.0,69,-99.99,,,-99.99,,2013-04-23 23:11:00,
2013-04-23 18:32:00,39.0,29.0,-100.00,SW,230,9.0,11.0,69,-99.99,,,-99.99,,2013-04-23 23:32:00,
2013-04-23 18:42:00,39.0,29.0,-100.00,SW,230,9.0,11.0,69,-99.99,,,-99.99,,2013-04-23 23:42:00,
2013-04-23 18:52:00,39.0,29.0,-100.00,SW,230,9.0,11.0,69,-99.99,,,-99.99,,2013-04-23 23:52:00,
2013-04-23 19:01:00,39.0,29.0,-100.00,SW,230,9.0,11.0,69,-99.99,,,-99.99,,2013-04-24 00:01:00,
2013-04-23 19:10:00,38.0,31.0,-100.00,WSW,245,5.0,6.0,75,-99.99,,,-99.99,,2013-04-24 00:10:00,
2013-04-23 19:32:00,38.0,31.0,-100.00,WSW,245,5.0,6.0,75,-99.99,,,-99.99,,2013-04-24 00:32:00,
2013-04-23 19:42:00,38.0,31.0,-100.00,WSW,245,5.0,6.0,75,-99.99,,,-99.99,,2013-04-24 00:42:00,
2013-04-23 19:52:00,38.0,31.0,-100.00,WSW,245,5.0,6.0,75,-99.99,,,-99.99,,2013-04-24 00:52:00,
2013-04-23 20:01:00,38.0,31.0,-100.00,WSW,245,5.0,6.0,75,-99.99,,,-99.99,,2013-04-24 01:01:00,
2013-04-23 20:10:00,36.0,30.0,-100.00,West,280,5.0,5.0,76,-99.99,,,-99.99,,2013-04-24 01:10:00,
2013-04-23 20:32:00,36.0,30.0,-100.00,West,280,5.0,5.0,76,-99.99,,,-99.99,,2013-04-24 01:32:00,
2013-04-23 20:43:00,36.0,30.0,-100.00,West,280,5.0,5.0,76,-99.99,,,-99.99,,2013-04-24 01:43:00,
2013-04-23 20:52:00,36.0,30.0,-100.00,West,280,5.0,5.0,76,-99.99,,,-99.99,,2013-04-24 01:52:00,
2013-04-23 21:02:00,36.0,30.0,-100.00,West,280,5.0,5.0,76,-99.99,,,-99.99,,2013-04-24 02:02:00,
2013-04-23 21:10:00,33.0,30.0,-100.00,NW,315,2.0,2.0,89,-99.99,,,-99.99,,2013-04-24 02:10:00,
2013-04-23 21:42:00,33.0,30.0,-100.00,NW,315,2.0,2.0,89,-99.99,,,-99.99,,2013-04-24 02:42:00,
2013-04-23 21:50:00,33.0,30.0,-100.00,NW,315,2.0,2.0,89,-99.99,,,-99.99,,2013-04-24 02:50:00,
2013-04-23 22:00:00,33.0,30.0,-100.00,NW,315,2.0,2.0,89,-99.99,,,-99.99,,2013-04-24 03:00:00,
2013-04-23 22:08:00,33.0,30.0,-100.00,NW,315,2.0,2.0,89,-99.99,,,-99.99,,2013-04-24 03:08:00,
2013-04-23 22:43:00,32.0,30.0,-100.00,West,260,3.0,3.0,92,-99.99,,,-99.99,,2013-04-24 03:43:00,
2013-04-23 22:53:00,32.0,30.0,-100.00,West,260,3.0,3.0,92,-99.99,,,-99.99,,2013-04-24 03:53:00,
2013-04-23 23:01:00,32.0,30.0,-100.00,West,260,3.0,3.0,92,-99.99,,,-99.99,,2013-04-24 04:01:00,
2013-04-23 23:03:00,32.0,30.0,-100.00,West,260,3.0,3.0,92,-99.99,,,-99.99,,2013-04-24 04:03:00,
2013-04-23 23:33:00,29.0,29.0,-100.00,SW,235,3.0,3.0,99,-99.99,,,-99.99,,2013-04-24 04:33:00,
2013-04-23 23:43:00,29.0,29.0,-100.00,SW,235,3.0,3.0,99,-99.99,,,-99.99,,2013-04-24 04:43:00,
2013-04-23 23:53:00,29.0,29.0,-100.00,SW,235,3.0,3.0,99,-99.99,,,-99.99,,2013-04-24 04:53:00,